Regional Weather Roundup
Issued by NWS Upton, NY

Current Version | Previous Version | Graphics & Text | Print | Product List | Glossary Off
Versions: 1 2 3 4 5 6 7 8 9 10 11 12 13 14 15 16 17 18 19 20 21 22 23 24 25 26 27 28 29 30 31 32 33 34 35 36 37 38 39 40 41 42 43 44 45 46 47 48 49 50

000
ASUS41 KOKX 281018
RWROKX

REGIONAL WEATHER ROUNDUP
NATIONAL WEATHER SERVICE NEW YORK NY
600 AM EDT THU MAY 28 2015

NOTE: "FAIR" INDICATES FEW OR NO CLOUDS BELOW 12,000 FEET WITH NO
SIGNIFICANT WEATHER AND/OR OBSTRUCTIONS TO VISIBILITY.

NYZ071-072-176-178-NJZ106-104-281100-
NEW YORK CITY METRO AREA


CITY           SKY/WX    TMP DP  RH WIND       PRES   REMARKS
CENTRAL PARK   CLOUDY    71  66  84 VRB3      30.17R
LAGUARDIA APRT CLOUDY    68  61  78 S7        30.14R
KENNEDY INTL   CLOUDY    61  57  88 S7        30.16F
NEWARK/LIBERTY CLOUDY    70  66  87 S5        30.14R
BRNX BOT. GARD   N/A     64  63  94 SE2       30.18R
TETERBORO      CLOUDY    70  66  88 SW5       30.14R
$$

NYZ177-179-078>081-281100-
LONG ISLAND NEW YORK

CITY           SKY/WX    TMP DP  RH WIND       PRES   REMARKS
FARMINGDALE    MOCLDY    63  59  87 SW10      30.18R
ISLIP          MOCLDY    64  60  87 SW9       30.16R
SHIRLEY        PTCLDY    63  60  90 SW9       30.18R
WESTHAMPTON    PTCLDY    61  59  93 SW8       30.19R
MONTAUK POINT    N/A     63  59  87 S9G16     30.19R
$$

NYZ052-065-067-281100-
HUDSON VALLEY

CITY           SKY/WX    TMP DP  RH WIND       PRES   REMARKS
WHITE PLAINS   CLOUDY    64  63  96 CALM      30.15R FOG
NEWBURGH       CLOUDY    66  66 100 CALM      30.15R
MONTGOMERY     CLOUDY    68  67  96 SW3       30.14R FOG
POUGHKEEPSIE   CLOUDY    68  65  90 CALM      30.13R
ALBANY         CLOUDY    68  64  87 S12       30.09R
$$

NJZ001-105-106-008-010-013-015-019>022-104-281100-
NEW JERSEY

CITY           SKY/WX    TMP DP  RH WIND       PRES   REMARKS
NEWARK/LIBERTY CLOUDY    70  66  87 S5        30.14R
TETERBORO      CLOUDY    70  66  88 SW5       30.14R
CALDWELL       CLOUDY    70  67  90 S5        30.15R FOG
MORRISTOWN     CLOUDY    72  68  88 S3        30.15R FOG
SOMERVILLE     CLOUDY    69  67  93 CALM      30.13R FOG
SUSSEX         CLOUDY    68  65  90 CALM      30.16R FOG
ANDOVER          N/A     68  67  96 CALM      30.15R
TRENTON        CLOUDY    68  66  93 SW5       30.14S FOG
MILLVILLE      MOCLDY    70  67  90 CALM      30.16R
ATLANTIC CITY  CLOUDY    65  62  90 S6        30.16R
WRIGHTSTOWN    PTCLDY    64  64 100 CALM      30.13R
TOMS RIVER     PTCLDY   N/A N/A N/A S3        30.16R
BELMAR         PTCLDY    66  59  77 SW3       30.16R
$$

PAZ047>061-062-071-281100-
EASTERN PENNSYLVANIA

CITY           SKY/WX    TMP DP  RH WIND       PRES   REMARKS
PHILADELPHIA   CLOUDY    70  67  90 SE3       30.15R
ALLENTOWN      CLOUDY    66  65  96 CALM      30.14S FOG
SCRANTON       CLEAR     64  61  90 CALM      30.15R FOG
$$

CTZ002-004>006-009-010-012-RIZ004-006-007-MAZ004-011-015-281100-
SOUTHERN NEW ENGLAND
 IN CT

CITY           SKY/WX    TMP DP  RH WIND       PRES   REMARKS
BRADLEY INTL   MOCLDY    65  62  90 S7        30.13R
HARTFORD       CLOUDY    66  62  87 S7        30.14R
DANBURY        CLOUDY    69  65  86 SW6       30.16R FOG
WTRBRY/OXFORD    N/A     64  61  88 SW5       30.17R VSB 0
BRIDGEPORT     CLOUDY    63  60  90 S9        30.15R
MERIDEN        CLOUDY    65  61  87 S8        30.15R
NEW HAVEN      CLOUDY    63  61  93 CALM      30.16R
CHESTER        CLOUDY    63  61  94 SW6       30.18R
GROTON         CLOUDY    59  56  89 S5        30.17R
WILLIMANTIC    CLOUDY    66  62  87 S7        30.15R

 IN RI

CITY           SKY/WX    TMP DP  RH WIND       PRES   REMARKS
PROVIDENCE     CLOUDY    64  60  87 S9        30.17R
BLOCK ISLAND   CLOUDY    59  55  88 SW15      30.19R
WESTERLY       PTCLDY    60  58  92 SW6       30.18R

 IN MA

CITY           SKY/WX    TMP DP  RH WIND       PRES   REMARKS
BOSTON         CLOUDY    66  61  84 SW9       30.12R
WORCESTER      CLOUDY    66  62  87 SW10G21   30.15R
WESTFIELD      CLOUDY    65  63  93 VRB5      30.13R FOG
PROVINCETOWN   CLOUDY    61  55  82 SW17G24   30.16R
NANTUCKET      CLOUDY    61  58  90 S13       30.22R
$$

ANZ330-335-338-340-345-350-353-355-281100-
COASTAL MARINE OBSERVATIONS


STATION/POSITION TIME  SKY/WX   TEMP    WIND        PRES    VSBY  WAVE
                                AIR SEA DIR/SP/G                  HT/PER
                 (UTC)          (F)     (DEG/KT/KT) (MB)    (MI)  (FT/S)
NY HARB ENTRANCE 0950            57 49  200/  8/ 10 1020.9          3/ 6
4S FIRE IS       1003               56                N/A           4/ 6
20S FIRE ISLAND  0950            60 57  200/ 12/ 14 1021.4          4/ 6
GREAT SOUTH BAY  0900            62 67  220/ 14/ 16   N/A
23SW MTP         0950            59 54  200/ 16/ 17 1021.5          4/ 6
HUDSON CANYON    NOT AVBL
KINGS POINT      0900            63 58  180/  6/  9 1019.6
CENTRAL LI SOUND 0900            60 56  210/  4/  6   N/A
EASTERN LI SOUND 0900            58     210/  8/ 10   N/A
ROBBINS REEF     0900            67     180/  6/  7 1019.4
$$


>>>>>>>>>>>>>>>>>>>>>>>>>>>> KEY <<<<<<<<<<<<<<<<<<<<<<<<<<<
>                                                          <
>     SKY/WX - SKY CONDITION/PRESENT WEATHER               <
>     TMP    - TEMPERATURE IN FAHRENHEIT                   <
>     DP     - DEWPOINT IN FAHRENHEIT                      <
>     RH     - RELATIVE HUMIDITY IN PERCENT                <
>     WIND   - DIRECTION AND SPEED IN MPH                  <
>     PRES   - MEAN SEA LEVEL PRESSURE IN INCHES OF HG     <
>     WCI    - WIND CHILL INDEX                            <
>     VSB    - VISIBILITY IN MILES                         <
>     HX     - HEAT INDEX                                  <
>     TC     - TEMPERATURE IN CELSIUS                      <
>     VRB    - VARIABLE WIND DIRECTION                     <
>                                                          <
>>>>>>>>>>>>>>>>>>>>>>>>>>>> KEY <<<<<<<<<<<<<<<<<<<<<<<<<<<




USA.gov is the U.S. government's official web portal to all federal, state and local government web resources and services.